Regional Weather Roundup
Issued by NWS Columbia, SC

Home | Current Version | Previous Version | Text Only | Print | Product List | Glossary On
Versions: 1 2 3 4 5 6 7 8 9 10 11 12 13 14 15 16 17 18 19 20 21 22 23 24 25 26 27 28
000
ASUS42 KCAE 042310
RWRCAE
REGIONAL WEATHER ROUNDUP
NATIONAL WEATHER SERVICE COLUMBIA SC
600 PM EST SUN DEC 04 2016

NOTE: "FAIR" INDICATES FEW OR NO CLOUDS BELOW 12,000 FEET WITH NO
SIGNIFICANT WEATHER AND/OR OBSTRUCTIONS TO VISIBILITY.

NOT ALL STATIONS ARE QUALITY CONTROLLED BY THE NATIONAL
WEATHER SERVICE. USE DATA WITH CAUTION...ESPECIALLY
DEWPOINT OBSERVATIONS.

SCZ001>056-GAZ040-063>065-077-050000-
...UPSTATE SOUTH CAROLINA...

CITY           SKY/WX    TMP DP  RH WIND       PRES   REMARKS
ANDERSON       LGT RAIN  42  40  92 NE8       30.10F FOG
LIBERTY        RAIN      41  40  96 NE7       30.10S
SPARTANBURG    DRIZZLE   41  37  87 NE6       30.13S
CLEMSON        LGT RAIN  44  40  85 NE7       30.12S FOG
GREENVILLE     LGT RAIN  43  40  89 NE9       30.12F FOG
GREENWOOD      LGT RAIN  42  40  92 NE7       30.12S FOG
GREER          LGT RAIN  41  39  93 NE8       30.11F FOG
ROCK HILL      LGT RAIN  42  40  92 CALM      30.14F FOG
CHESTER        RAIN      41  41 100 NE6       30.13F
LAURENS        RAIN      41  41 100 NE5       30.12S


...CENTRAL SOUTH CAROLINA...

CITY           SKY/WX    TMP DP  RH WIND       PRES   REMARKS
COLUMBIA APT   LGT RAIN  47  43  86 E9        30.11F
COLUMBIA OWENS LGT RAIN  46  43  89 CALM      30.13F
MCENTIRE ANGB  CLOUDY    45  43  93 E5        30.11F
ORANGEBURG     LGT RAIN  47  44  90 NE7       30.11S
SUMTER SHAW    LGT RAIN  45  42  90 NE9       30.10F
NEWBERRY       RAIN      43  43 100 NE7       30.14S
AIKEN          LGT RAIN  43  43 100 NE9       30.11F
LANCASTER      CLOUDY    41  41 100 NE7       30.13F FOG
WINNSBORO      RAIN      43  43 100 NE8       30.11F


...EASTERN AND COASTAL SOUTH CAROLINA...

CITY           SKY/WX    TMP DP  RH WIND       PRES   REMARKS
MYRTLE BEACH   CLOUDY    52  37  58 NE8       30.15F
N MYRTLE BCH   CLOUDY    48  41  76 NE8       30.13F
CONWAY         CLOUDY    46  39  76 NE6       30.14F
MARION         CLOUDY    43  41  93 NE6       30.14S
HARTSVILLE     CLOUDY    43  41  93 NE7       30.14S
FLORENCE       LGT RAIN  46  43  89 NE7       30.14F
DARLINGTON     LGT RAIN  44  42  93 NE6       30.15F
CHARLESTON APT CLOUDY    57  48  72 E10       30.08F
WALTERBORO     CLOUDY    54  50  87 NE5       30.09S
BEAUFORT       CLOUDY    60  54  80 NE5       30.06F
HILTON HEAD    CLOUDY    63  57  82 NE5       30.05F


...EASTERN GEORGIA...

CITY           SKY/WX    TMP DP  RH WIND       PRES   REMARKS
AUGUSTA BUSH F LGT RAIN  48  44  86 NE8       30.07F FOG
AUGUSTA DANIEL LGT RAIN  47  43  86 NE9       30.08F
THOMSON        CLOUDY    46  46 100 CALM      30.12S
WASHINGTON     DRIZZLE   45  45 100 E5        30.08F
CLAXTON        CLOUDY    60  58  92 NE7       30.02F
SYLVANIA       CLOUDY   N/A N/A N/A NE7       30.06F
STATESBORO     CLOUDY    58  52  80 NE7       30.04F
SAVANNAH       LGT RAIN  61  55  81 NE8       30.04F


...SOUTHERN NORTH CAROLINA...

CITY           SKY/WX    TMP DP  RH WIND       PRES   REMARKS
CHARLOTTE      CLOUDY    42  39  89 N6        30.14F
MONROE         CLOUDY    41  38  89 NE7       30.13F
WADESBORO      DRIZZLE   42  40  92 CALM      30.16F
RUTHERFORDTON  DRIZZLE   40  40 100 CALM      30.14F
ASHEVILLE      LGT RAIN  38  36  92 SE7       30.10F FOG     WCI  33

$$




USA.gov is the U.S. government's official web portal to all federal, state and local government web resources and services.